• In Hungary
  • List of Countries
  • For 7 days
  • Water Temperature
  • Satellite Maps
  • Weather Map
  • News
  • Weather Widgets
  • user-avatar
    Login

    Hourly Weather Buenos Aires

    Today, 16 January, Tuesday

    Time Temperature Precipitation Wind Pressure Humidity
    00:00 +21°C° 0 mm 3 mps 760 mmHg 78%
    01:00 +21°C° 0 mm 3 mps 760 mmHg 80%
    02:00 +21°C° 0 mm 3 mps 760 mmHg 81%
    03:00 +20°C° 0 mm 2 mps 760 mmHg 82%
    04:00 +20°C° 0 mm 2 mps 761 mmHg 83%
    05:00 +20°C° 0 mm 2 mps 761 mmHg 85%
    06:00 +23°C° 0 mm 2 mps 761 mmHg 77%
    07:00 +24°C° 0 mm 2 mps 761 mmHg 69%
    08:00 +26°C° 0 mm 3 mps 761 mmHg 62%
    09:00 +28°C° 0 mm 2 mps 761 mmHg 55%
    10:00 +30°C° 0 mm 2 mps 761 mmHg 48%
    11:00 +31°C° 0 mm 1 mps 761 mmHg 41%
    12:00 +32°C° 0 mm 1 mps 761 mmHg 39%
    13:00 +34°C° 0 mm 2 mps 760 mmHg 36%
    14:00 +34°C° 0 mm 2 mps 759 mmHg 34%
    15:00 +34°C° 0 mm 3 mps 759 mmHg 35%
    16:00 +34°C° 0 mm 3 mps 759 mmHg 36%
    17:00 +33°C° 0 mm 4 mps 758 mmHg 38%
    18:00 +30°C° 0 mm 4 mps 758 mmHg 44%
    19:00 +29°C° 0 mm 4 mps 758 mmHg 51%
    20:00 +27°C° 0 mm 5 mps 758 mmHg 58%
    21:00 +27°C° 0 mm 5 mps 759 mmHg 63%
    22:00 +26°C° 0 mm 5 mps 759 mmHg 67%
    23:00 +26°C° 0 mm 5 mps 760 mmHg 71%

    Tomorrow, 17 January, Wednesday

    Time Temperature Precipitation Wind Pressure Humidity
    00:00 +25°C° 0 mm 4 mps 759 mmHg 72%
    01:00 +25°C° 0 mm 4 mps 759 mmHg 72%
    02:00 +25°C° 0 mm 4 mps 759 mmHg 73%
    03:00 +25°C° 0.1 mm 4 mps 759 mmHg 73%
    04:00 +25°C° 0.1 mm 4 mps 759 mmHg 73%
    05:00 +25°C° 0.1 mm 3 mps 759 mmHg 73%
    06:00 +25°C° 0.4 mm 3 mps 759 mmHg 74%
    07:00 +25°C° 0.4 mm 3 mps 760 mmHg 75%
    08:00 +25°C° 0.4 mm 3 mps 760 mmHg 76%
    09:00 +26°C° 0.3 mm 2 mps 760 mmHg 72%
    10:00 +26°C° 0.3 mm 2 mps 760 mmHg 69%
    11:00 +27°C° 0.3 mm 2 mps 759 mmHg 65%
    12:00 +27°C° 0.1 mm 2 mps 759 mmHg 62%
    13:00 +28°C° 0.1 mm 2 mps 759 mmHg 59%
    14:00 +28°C° 0.1 mm 1 mps 758 mmHg 56%
    15:00 +29°C° 0 mm 2 mps 758 mmHg 53%
    16:00 +29°C° 0 mm 2 mps 757 mmHg 50%
    17:00 +30°C° 0 mm 3 mps 757 mmHg 46%
    18:00 +29°C° 0 mm 3 mps 757 mmHg 51%
    19:00 +28°C° 0 mm 3 mps 757 mmHg 56%
    20:00 +27°C° 0 mm 3 mps 758 mmHg 61%
    21:00 +26°C° 0.3 mm 2 mps 758 mmHg 64%
    22:00 +26°C° 0.3 mm 2 mps 758 mmHg 68%
    23:00 +25°C° 0.3 mm 1 mps 759 mmHg 72%

    Day after tomorrow, 18 January, Thursday

    Time Temperature Precipitation Wind Pressure Humidity
    00:00 +25°C° 0.7 mm 2 mps 759 mmHg 73%
    01:00 +24°C° 0.7 mm 2 mps 758 mmHg 75%
    02:00 +22°C° 0.7 mm 3 mps 758 mmHg 77%
    03:00 +23°C° 0 mm 2 mps 758 mmHg 77%
    04:00 +23°C° 0 mm 2 mps 757 mmHg 78%
    05:00 +23°C° 0 mm 1 mps 757 mmHg 79%
    06:00 +24°C° 0 mm 1 mps 758 mmHg 71%
    07:00 +26°C° 0 mm 1 mps 758 mmHg 64%
    08:00 +28°C° 0 mm 1 mps 759 mmHg 56%
    09:00 +30°C° 0 mm 2 mps 759 mmHg 49%
    10:00 +31°C° 0 mm 2 mps 759 mmHg 43%
    11:00 +34°C° 0 mm 3 mps 759 mmHg 36%
    12:00 +35°C° 0 mm 3 mps 758 mmHg 33%
    13:00 +36°C° 0 mm 3 mps 758 mmHg 31%
    14:00 +37°C° 0 mm 3 mps 757 mmHg 28%
    15:00 +36°C° 0 mm 3 mps 757 mmHg 29%
    16:00 +36°C° 0 mm 3 mps 757 mmHg 30%
    17:00 +35°C° 0 mm 4 mps 757 mmHg 31%
    18:00 +33°C° 0 mm 4 mps 757 mmHg 39%
    19:00 +30°C° 0 mm 4 mps 758 mmHg 47%
    20:00 +28°C° 0 mm 4 mps 758 mmHg 55%
    21:00 +28°C° 0 mm 4 mps 758 mmHg 57%
    22:00 +27°C° 0 mm 4 mps 759 mmHg 60%
    23:00 +26°C° 0 mm 4 mps 759 mmHg 62%

    19 January, Friday

    Time Temperature Precipitation Wind Pressure Humidity
    00:00 +26°C° 0 mm 3 mps 759 mmHg 65%
    01:00 +25°C° 0 mm 3 mps 759 mmHg 67%
    02:00 +25°C° 0 mm 3 mps 759 mmHg 69%
    03:00 +25°C° 0 mm 3 mps 759 mmHg 69%
    04:00 +24°C° 0 mm 2 mps 759 mmHg 70%
    05:00 +24°C° 0 mm 2 mps 759 mmHg 70%
    06:00 +26°C° 0 mm 2 mps 760 mmHg 62%
    07:00 +27°C° 0 mm 2 mps 760 mmHg 55%
    08:00 +29°C° 0 mm 3 mps 761 mmHg 47%
    09:00 +31°C° 0 mm 2 mps 760 mmHg 40%
    10:00 +34°C° 0 mm 2 mps 760 mmHg 33%
    11:00 +36°C° 0 mm 2 mps 760 mmHg 25%
    12:00 +37°C° 0 mm 2 mps 759 mmHg 24%
    13:00 +37°C° 0 mm 2 mps 759 mmHg 22%
    14:00 +38°C° 0 mm 3 mps 758 mmHg 20%
    15:00 +38°C° 0 mm 3 mps 758 mmHg 21%
    16:00 +37°C° 0 mm 3 mps 758 mmHg 22%
    17:00 +37°C° 0 mm 3 mps 757 mmHg 23%
    18:00 +35°C° 0 mm 4 mps 757 mmHg 29%
    19:00 +33°C° 0 mm 4 mps 758 mmHg 35%
    20:00 +30°C° 0 mm 4 mps 758 mmHg 41%
    21:00 +30°C° 0 mm 4 mps 758 mmHg 43%
    22:00 +29°C° 0 mm 5 mps 758 mmHg 45%
    23:00 +29°C° 0 mm 5 mps 759 mmHg 47%

    20 January, Saturday

    Time Temperature Precipitation Wind Pressure Humidity
    00:00 +28°C° 0 mm 5 mps 758 mmHg 46%
    01:00 +28°C° 0 mm 5 mps 758 mmHg 45%
    02:00 +27°C° 0 mm 5 mps 758 mmHg 44%
    03:00 +27°C° 0 mm 4 mps 758 mmHg 45%
    04:00 +26°C° 0 mm 4 mps 758 mmHg 47%
    05:00 +26°C° 0 mm 4 mps 758 mmHg 48%
    06:00 +27°C° 0 mm 4 mps 758 mmHg 45%
    07:00 +29°C° 0 mm 4 mps 759 mmHg 43%
    08:00 +32°C° 0 mm 4 mps 759 mmHg 40%
    09:00 +33°C° 0 mm 4 mps 759 mmHg 35%
    10:00 +35°C° 0 mm 4 mps 759 mmHg 30%
    11:00 +37°C° 0 mm 4 mps 758 mmHg 25%
    12:00 +38°C° 0 mm 4 mps 758 mmHg 24%
    13:00 +38°C° 0 mm 3 mps 757 mmHg 22%
    14:00 +39°C° 0 mm 3 mps 756 mmHg 21%
    15:00 +40°C° 0 mm 4 mps 756 mmHg 22%
    16:00 +38°C° 0 mm 4 mps 756 mmHg 23%
    17:00 +38°C° 0 mm 4 mps 756 mmHg 24%
    18:00 +36°C° 0 mm 4 mps 756 mmHg 29%
    19:00 +34°C° 0 mm 4 mps 756 mmHg 34%
    20:00 +32°C° 0 mm 4 mps 756 mmHg 39%
    21:00 +32°C° 0 mm 4 mps 756 mmHg 38%
    22:00 +32°C° 0 mm 5 mps 756 mmHg 38%
    23:00 +30°C° 0 mm 5 mps 756 mmHg 38%

    21 January, Sunday

    Time Temperature Precipitation Wind Pressure Humidity
    00:00 +29°C° 0 mm 5 mps 756 mmHg 38%
    01:00 +29°C° 0 mm 4 mps 756 mmHg 39%
    02:00 +28°C° 0 mm 4 mps 756 mmHg 39%
    03:00 +28°C° 0 mm 4 mps 756 mmHg 43%
    04:00 +27°C° 0 mm 4 mps 756 mmHg 48%
    05:00 +26°C° 0 mm 4 mps 756 mmHg 52%
    06:00 +27°C° 0 mm 4 mps 756 mmHg 50%
    07:00 +29°C° 0 mm 4 mps 756 mmHg 48%
    08:00 +30°C° 0 mm 4 mps 756 mmHg 46%
    09:00 +33°C° 0 mm 4 mps 756 mmHg 40%
    10:00 +34°C° 0 mm 4 mps 756 mmHg 34%
    11:00 +36°C° 0 mm 4 mps 755 mmHg 28%
    12:00 +36°C° 0 mm 4 mps 755 mmHg 27%
    13:00 +36°C° 0 mm 4 mps 754 mmHg 26%
    14:00 +37°C° 0 mm 5 mps 754 mmHg 25%
    15:00 +36°C° 0 mm 5 mps 754 mmHg 27%
    16:00 +35°C° 0 mm 5 mps 754 mmHg 28%
    17:00 +35°C° 0 mm 4 mps 754 mmHg 30%
    18:00 +33°C° 0 mm 4 mps 754 mmHg 33%
    19:00 +32°C° 0 mm 4 mps 754 mmHg 37%
    20:00 +30°C° 0 mm 4 mps 754 mmHg 40%
    21:00 +29°C° 0 mm 4 mps 754 mmHg 40%
    22:00 +29°C° 0 mm 3 mps 754 mmHg 39%
    23:00 +28°C° 0 mm 3 mps 754 mmHg 39%
    Show more